#timestamp,LO_Frequency,Hit,StdDev 
1716210015.5,286047000.1,N
1716210035.4,286047000.9,N
1716210055.2,286047000.6,N
1716210075.0,286047000.6,N
1716210075.9,286047000.6,N
1716210095.8,286047000.5,N
1716210115.6,286047000.7,N
1716210135.5,286046998.3,N
1716210155.3,286046998.1,N
1716210175.1,286046998.2,N
1716210195.9,286047000.1,N
1716210215.7,286046999.7,N
1716210235.5,286047002.4,N
1716210255.4,286047002.4,N
1716210275.2,286047002.7,N
1716210295.0,286047000.2,N
1716210296.0,286047000.2,N
1716210315.8,286047002.6,N
1716210335.6,286046999.7,N
1716210355.5,286046999.7,N
1716210375.3,286047002.5,N
1716210395.1,286047002.6,N
1716210415.9,286047000.6,N
1716210435.7,286047000.1,N
1716210455.6,286047000.6,N
1716210475.4,286047000.3,N
1716210495.2,286046999.9,N
1716210515.1,286047000.3,N
1716210516.0,286047000.3,N
1716210535.8,286047000.5,N
1716210555.7,286047000.0,N
1716210575.5,286046999.7,N
1716210595.3,286047002.3,N
1716210615.2,286047002.2,N
1716210635.0,286046999.8,N
1716210635.9,286046999.8,N
1716210655.7,286047000.5,N
1716210675.6,286047000.5,N
1716210695.4,286047000.4,N
1716210715.3,286046998.1,N
1716210735.1,286047000.8,N
1716210755.8,286047000.9,N
1716210775.7,286047002.5,N
1716210795.5,286047002.2,N
1716210815.4,286047000.4,N
1716210835.2,286047000.3,N
1716210855.0,286047000.4,N
1716210855.9,286047000.4,N
1716210875.8,286046998.5,N
1716210895.6,286047000.7,N
1716210915.4,286047001.2,N
1716210935.3,286047000.8,N
1716210955.1,286047000.8,N
1716210975.9,286047000.5,N
1716210995.7,286047001.0,N
1716211015.5,286047000.0,N
1716211035.4,286047000.4,N
1716211055.2,286047000.5,N
1716211075.0,286047002.7,N
1716211075.9,286047002.7,N
1716211095.8,286046999.9,N
1716211115.6,286047000.3,N
1716211135.5,286047000.8,N
1716211155.3,286047001.0,N
1716211175.1,286047000.4,N
1716211195.9,286046999.9,N
1716211215.7,286047000.3,N
1716211235.5,286047001.1,N
1716211255.4,286046998.9,N
1716211275.2,286046998.2,N
1716211295.0,286046999.1,N
1716211296.0,286046999.1,N
1716211315.8,286046996.6,Y
1716211335.6,286046997.1,P
1716211355.5,286046997.1,N
1716211375.3,286046997.6,N
1716211395.1,286046997.3,N
1716211415.9,286046994.9,Y
1716211435.7,286047001.2,P
1716211455.6,286046996.5,N
1716211475.4,286046996.6,N
1716211495.2,286046996.5,N
1716211515.1,286046996.5,N
1716211516.0,286046996.5,N
1716211535.8,286046996.7,N
1716211555.6,286046996.6,N
1716211575.5,286046997.7,N
1716211595.3,286046997.1,N
1716211615.2,286046996.5,N
1716211635.9,286046999.2,N
1716211655.7,286046999.6,N
1716211675.6,286046999.1,N
1716211695.4,286046998.7,N
1716211715.2,286046996.9,N
1716211735.1,286046998.5,N
1716211736.0,286046998.5,N
1716211755.8,286046999.2,N
1716211775.7,286046996.8,N
1716211795.5,286046996.8,N
1716211815.3,286046996.6,N
1716211835.2,286046996.7,N
1716211855.0,286046996.6,N
1716211855.9,286046996.6,N
1716211875.8,286046996.6,N
1716211895.6,286046998.9,N
1716211915.4,286046999.3,N
1716211935.3,286046996.5,N
1716211955.1,286046999.1,N
1716211975.8,286046999.3,N
1716211995.7,286046998.1,N
1716212015.5,286047000.6,N
1716212035.4,286047000.0,N
1716212055.2,286046999.8,N
1716212075.0,286047000.2,N
1716212075.9,286047000.2,N
1716212095.8,286046999.9,N
1716212115.6,286046999.9,N
1716212135.4,286046999.7,N
1716212155.3,286046999.9,N
1716212175.1,286047001.0,N
1716212195.9,286046999.9,N
1716212215.7,286046999.8,N
1716212235.5,286047002.2,N
1716212255.4,286047001.9,N
1716212275.2,286047002.0,N
1716212295.0,286047004.0,N
1716212295.9,286047004.0,N
1716212315.8,286047001.5,N
1716212335.6,286047001.5,N
1716212355.4,286047001.3,N
1716212375.3,286047003.6,N
1716212395.1,286047004.1,N
1716212415.9,286047003.7,N
1716212435.7,286047003.2,N
1716212455.5,286047003.6,N
1716212475.4,286047003.8,N
1716212495.2,286047003.7,N
1716212515.0,286047003.3,N
1716212516.0,286047003.3,N
1716212535.8,286047003.7,N
1716212555.6,286047003.4,N
1716212575.5,286047006.0,Y
1716212595.3,286047004.2,P
1716212615.1,286047004.2,P
1716212635.9,286047003.5,P
1716212655.7,286047003.2,Y
1716212675.6,286046998.1,P
1716212695.4,286046998.3,N
1716212715.2,286047001.2,N
1716212735.1,286047000.4,N
1716212736.0,286047000.4,N
1716212755.8,286047000.2,N
1716212775.7,286047002.8,N
1716212795.5,286047000.1,N
1716212815.3,286047000.1,N
1716212835.2,286047000.5,N
1716212855.9,286047000.3,N
1716212875.7,286047001.2,N
1716212895.6,286047000.8,N
1716212915.4,286047000.5,N
1716212935.2,286047001.0,N
1716212955.1,286047000.7,N
1716212956.0,286047000.7,N
1716212975.8,286047000.5,N
1716212995.7,286047000.7,N
1716213015.5,286047001.0,N
1716213035.3,286047000.4,N
1716213055.2,286047000.1,N
1716213075.0,286047000.1,N
1716213075.9,286047000.1,N
1716213095.8,286047002.7,N
1716213115.6,286047002.3,N
1716213135.4,286047000.1,N
1716213155.3,286047002.8,N
1716213175.1,286047001.7,N
1716213195.8,286047001.5,N
1716213215.7,286047004.4,Y
1716213235.5,286047002.4,P
1716213255.4,286047001.5,N
1716213275.2,286047001.4,N
1716213295.0,286047001.6,N
1716213295.9,286047001.6,N
1716213315.8,286047004.1,Y
1716213335.6,286047002.5,P
1716213355.5,286046999.8,N
1716213375.3,286047002.7,N
1716213395.1,286047002.1,N
1716213415.9,286047002.3,N
1716213435.7,286047000.5,N
1716213455.6,286047000.9,N
1716213475.4,286047000.3,N
1716213495.2,286046999.9,N
1716213515.1,286046999.9,N
1716213516.0,286046999.9,N
1716213535.8,286047001.2,N
1716213555.7,286047002.5,N
1716213575.5,286047000.1,N
1716213595.3,286046999.8,N
